Location: Bletchingley
(51.2333°N, 0.1000°W)
Time: 06:49:50
(UTC+00:00)

Cosmos 909 Rocket - Pass Details

Date: 18 September 2020
Orbit: 990 x 2088 km, 65.9° (Epoch: 19 October)

Event Time Altitude Azimuth Distance (km) Brightness Sun altitude
Rises 21:37:44 0° 319° (NW) 3,991 8.4 -29.9°
Reaches altitude 10° 21:40:32 10° 320° (NW) 2,930 7.4 -30.2°
Enters shadow 21:46:58 83° 352° (N) 1,017 4.0 -30.8°
